When you browse on this site, cookies collect data to enhance your experience and personalize the content and advertising you see.
Visit our Privacy Policy to learn more. By continuing to use the site, you agree to this use of cookies and data.
  • en France
  • Liste des pays
  • À 7 jours
  • Température de l'eau
  • Carte météo
  • Widgets météo
  • user-avatar
    Se connecter

    Météo par heure à Zychorzyn

    Ce jour, 14 Octobre, Lundi

    Heure Température Précipitation Vent Pression Humidité
    00:00 +14°C° 0 mm 4 m/s 748 mmHg 74%
    01:00 +14°C° 0 mm 4 m/s 748 mmHg 74%
    02:00 +14°C° 0 mm 4 m/s 748 mmHg 75%
    03:00 +13°C° 0 mm 4 m/s 747 mmHg 76%
    04:00 +13°C° 0 mm 4 m/s 747 mmHg 77%
    05:00 +13°C° 0 mm 4 m/s 747 mmHg 75%
    06:00 +14°C° 0 mm 4 m/s 747 mmHg 73%
    07:00 +14°C° 0 mm 5 m/s 747 mmHg 72%
    08:00 +17°C° 0 mm 4 m/s 747 mmHg 67%
    09:00 +18°C° 0 mm 4 m/s 747 mmHg 62%
    10:00 +20°C° 0 mm 4 m/s 747 mmHg 57%
    11:00 +21°C° 0 mm 4 m/s 747 mmHg 54%
    12:00 +22°C° 0 mm 3 m/s 747 mmHg 52%
    13:00 +24°C° 0 mm 3 m/s 748 mmHg 50%
    14:00 +23°C° 0 mm 2 m/s 747 mmHg 53%
    15:00 +23°C° 0 mm 2 m/s 747 mmHg 57%
    16:00 +21°C° 0 mm 2 m/s 747 mmHg 60%
    17:00 +20°C° 0 mm 2 m/s 747 mmHg 64%
    18:00 +19°C° 0 mm 1 m/s 747 mmHg 68%
    19:00 +18°C° 0 mm 1 m/s 748 mmHg 71%
    20:00 +18°C° 0 mm 1 m/s 747 mmHg 73%
    21:00 +16°C° 0 mm 1 m/s 747 mmHg 75%
    22:00 +16°C° 0 mm 1 m/s 747 mmHg 76%
    23:00 +15°C° 0 mm 1 m/s 747 mmHg 77%

    Demain, 15 Octobre, Mardi

    Heure Température Précipitation Vent Pression Humidité
    00:00 +15°C° 0 mm 1 m/s 747 mmHg 78%
    01:00 +15°C° 0 mm 1 m/s 747 mmHg 78%
    02:00 +14°C° 0 mm 2 m/s 747 mmHg 80%
    03:00 +14°C° 0 mm 2 m/s 746 mmHg 82%
    04:00 +13°C° 0 mm 2 m/s 746 mmHg 83%
    05:00 +12°C° 0 mm 3 m/s 746 mmHg 82%
    06:00 +12°C° 0 mm 3 m/s 746 mmHg 81%
    07:00 +12°C° 0 mm 3 m/s 746 mmHg 80%
    08:00 +14°C° 0 mm 4 m/s 745 mmHg 74%
    09:00 +15°C° 0 mm 4 m/s 745 mmHg 68%
    10:00 +18°C° 0 mm 4 m/s 745 mmHg 62%
    11:00 +19°C° 0 mm 4 m/s 744 mmHg 59%
    12:00 +20°C° 0 mm 4 m/s 744 mmHg 56%
    13:00 +21°C° 0 mm 4 m/s 744 mmHg 53%
    14:00 +21°C° 0 mm 4 m/s 743 mmHg 56%
    15:00 +20°C° 0 mm 3 m/s 743 mmHg 59%
    16:00 +20°C° 0 mm 3 m/s 742 mmHg 62%
    17:00 +19°C° 0 mm 3 m/s 742 mmHg 64%
    18:00 +18°C° 0 mm 4 m/s 742 mmHg 67%
    19:00 +17°C° 0 mm 4 m/s 742 mmHg 69%
    20:00 +15°C° 0 mm 4 m/s 742 mmHg 70%
    21:00 +15°C° 0 mm 4 m/s 742 mmHg 71%
    22:00 +14°C° 0 mm 4 m/s 742 mmHg 71%
    23:00 +14°C° 0 mm 4 m/s 742 mmHg 73%

    Après-demain, 16 Octobre, Mercredi

    Heure Température Précipitation Vent Pression Humidité
    00:00 +14°C° 0 mm 3 m/s 742 mmHg 74%
    01:00 +13°C° 0 mm 3 m/s 742 mmHg 76%
    02:00 +13°C° 0 mm 3 m/s 741 mmHg 74%
    03:00 +13°C° 0 mm 3 m/s 741 mmHg 72%
    04:00 +13°C° 0 mm 3 m/s 741 mmHg 71%
    05:00 +14°C° 0 mm 4 m/s 742 mmHg 72%
    06:00 +14°C° 0 mm 5 m/s 742 mmHg 74%
    07:00 +14°C° 0 mm 5 m/s 742 mmHg 75%
    08:00 +15°C° 0 mm 5 m/s 743 mmHg 74%
    09:00 +16°C° 0 mm 5 m/s 743 mmHg 73%
    10:00 +17°C° 0 mm 6 m/s 744 mmHg 72%
    11:00 +17°C° 0 mm 6 m/s 744 mmHg 69%
    12:00 +19°C° 0 mm 6 m/s 745 mmHg 65%
    13:00 +19°C° 0 mm 6 m/s 745 mmHg 62%
    14:00 +17°C° 0 mm 5 m/s 745 mmHg 62%
    15:00 +17°C° 0 mm 5 m/s 745 mmHg 62%
    16:00 +17°C° 0 mm 4 m/s 745 mmHg 63%
    17:00 +15°C° 0 mm 4 m/s 745 mmHg 66%
    18:00 +14°C° 0 mm 3 m/s 746 mmHg 69%
    19:00 +13°C° 0 mm 3 m/s 746 mmHg 73%
    20:00 +12°C° 0 mm 3 m/s 746 mmHg 73%
    21:00 +11°C° 0 mm 3 m/s 747 mmHg 74%
    22:00 +11°C° 0 mm 3 m/s 747 mmHg 74%
    23:00 +11°C° 0 mm 3 m/s 747 mmHg 76%

    17 Octobre, Jeudi

    Heure Température Précipitation Vent Pression Humidité
    00:00 +10°C° 0 mm 3 m/s 747 mmHg 77%
    01:00 +10°C° 0 mm 3 m/s 747 mmHg 78%
    02:00 +10°C° 0 mm 3 m/s 747 mmHg 79%
    03:00 +9°C° 0 mm 3 m/s 747 mmHg 79%
    04:00 +9°C° 0 mm 3 m/s 747 mmHg 79%
    05:00 +9°C° 0 mm 3 m/s 747 mmHg 78%
    06:00 +9°C° 0 mm 3 m/s 747 mmHg 77%
    07:00 +10°C° 0 mm 3 m/s 747 mmHg 76%
    08:00 +12°C° 0 mm 3 m/s 748 mmHg 69%
    09:00 +13°C° 0 mm 3 m/s 748 mmHg 61%
    10:00 +15°C° 0 mm 4 m/s 748 mmHg 54%
    11:00 +17°C° 0 mm 3 m/s 748 mmHg 51%
    12:00 +18°C° 0 mm 3 m/s 748 mmHg 49%
    13:00 +19°C° 0 mm 3 m/s 747 mmHg 47%
    14:00 +18°C° 0 mm 2 m/s 747 mmHg 51%
    15:00 +17°C° 0 mm 2 m/s 747 mmHg 54%
    16:00 +18°C° 0 mm 1 m/s 747 mmHg 58%
    17:00 +16°C° 0 mm 1 m/s 747 mmHg 60%
    18:00 +15°C° 0 mm 1 m/s 748 mmHg 62%
    19:00 +14°C° 0 mm 1 m/s 748 mmHg 65%
    20:00 +14°C° 0 mm 1 m/s 748 mmHg 65%
    21:00 +14°C° 0 mm 1 m/s 748 mmHg 66%
    22:00 +13°C° 0 mm 1 m/s 748 mmHg 67%
    23:00 +13°C° 0 mm 1 m/s 748 mmHg 68%

    18 Octobre, Vendredi

    Heure Température Précipitation Vent Pression Humidité
    00:00 +13°C° 0 mm 1 m/s 748 mmHg 70%
    01:00 +13°C° 0 mm 1 m/s 748 mmHg 71%
    02:00 +13°C° 0 mm 1 m/s 749 mmHg 74%
    03:00 +12°C° 0 mm 1 m/s 749 mmHg 77%
    04:00 +12°C° 0 mm 1 m/s 749 mmHg 80%
    05:00 +12°C° 0 mm 1 m/s 749 mmHg 81%
    06:00 +12°C° 0 mm 1 m/s 749 mmHg 82%
    07:00 +12°C° 0 mm 1 m/s 749 mmHg 83%
    08:00 +14°C° 0 mm 1 m/s 749 mmHg 76%
    09:00 +15°C° 0 mm 1 m/s 749 mmHg 69%
    10:00 +18°C° 0 mm 1 m/s 750 mmHg 63%
    11:00 +19°C° 0 mm 1 m/s 749 mmHg 60%
    12:00 +20°C° 0 mm 1 m/s 749 mmHg 57%
    13:00 +18°C° 0 mm 0 m/s 749 mmHg 54%
    14:00 +20°C° 0 mm 1 m/s 749 mmHg 57%
    15:00 +19°C° 0 mm 1 m/s 749 mmHg 60%
    16:00 +18°C° 0 mm 1 m/s 749 mmHg 63%
    17:00 +18°C° 0 mm 1 m/s 749 mmHg 66%
    18:00 +16°C° 0 mm 1 m/s 749 mmHg 68%
    19:00 +15°C° 0 mm 1 m/s 749 mmHg 71%
    20:00 +15°C° 0 mm 1 m/s 749 mmHg 73%
    21:00 +15°C° 0 mm 1 m/s 749 mmHg 75%
    22:00 +15°C° 0 mm 1 m/s 749 mmHg 77%
    23:00 +14°C° 0 mm 1 m/s 749 mmHg 79%

    19 Octobre, Samedi

    Heure Température Précipitation Vent Pression Humidité
    00:00 +14°C° 0 mm 1 m/s 749 mmHg 81%
    01:00 +14°C° 0 mm 1 m/s 749 mmHg 83%
    02:00 +14°C° 0 mm 1 m/s 749 mmHg 84%
    03:00 +14°C° 0 mm 1 m/s 749 mmHg 85%
    04:00 +14°C° 0 mm 1 m/s 748 mmHg 85%
    05:00 +14°C° 0 mm 1 m/s 748 mmHg 86%
    06:00 +14°C° 0 mm 1 m/s 748 mmHg 87%
    07:00 +13°C° 0 mm 1 m/s 748 mmHg 88%
    08:00 +15°C° 0 mm 1 m/s 748 mmHg 82%
    09:00 +16°C° 0 mm 2 m/s 748 mmHg 76%
    10:00 +17°C° 0 mm 2 m/s 748 mmHg 70%
    11:00 +19°C° 0 mm 1 m/s 748 mmHg 68%
    12:00 +20°C° 0 mm 1 m/s 747 mmHg 65%
    13:00 +20°C° 0 mm 1 m/s 747 mmHg 63%
    14:00 +20°C° 0 mm 1 m/s 747 mmHg 66%
    15:00 +19°C° 0 mm 1 m/s 746 mmHg 68%
    16:00 +19°C° 0 mm 1 m/s 746 mmHg 71%
    17:00 +17°C° 0 mm 2 m/s 746 mmHg 73%
    18:00 +16°C° 0 mm 2 m/s 746 mmHg 76%
    19:00 +16°C° 0 mm 2 m/s 746 mmHg 78%
    20:00 +16°C° 0.1 mm 2 m/s 745 mmHg 79%
    21:00 +15°C° 0.1 mm 2 m/s 745 mmHg 80%
    22:00 +15°C° 0.1 mm 2 m/s 745 mmHg 81%
    23:00 +15°C° 0.1 mm 2 m/s 745 mmHg 80%
    Voir plus